{"data":{"norad_id":48987,"epoch":"2026-09-20T02:04:16.721760Z","epoch_age_seconds":57674,"freshness":"FRESH","line1":"1 48987U 21060W   26263.08630465  .00000069  00000+0  14574-3 0  9994","line2":"2 48987  87.9154 209.9379 0002020  85.6702 274.4660 13.16595078252118","mean_motion":13.16595078,"eccentricity":0.000202,"inclination_deg":87.9154,"raan_deg":209.9379,"arg_perigee_deg":85.6702,"mean_anomaly_deg":274.466,"bstar":0.00014574,"rev_number":25211,"period_min":109.37303534413,"perigee_km":1196.2231877675,"apogee_km":1199.2838475366,"semimajor_km":7575.8905176521,"source":"CELESTRAK","updated_at":"2026-09-20T09:00:44.627006Z"}}